ROT371 LROP-LRTR

Flight info

Callsign ROT371
Flight time N/A
Altitude 28000
Route SOKRU1K SOKRU DCT OXDOC DCT NEKUL NEKUL2A
Aircraft B738/M-SDE2E3FGHIRWXY/LB1

Departure

Time 2026-05-07 18:29
Airport Bucharest Henri Coandă International Airport (LROP)

Arrival

Time N/A
Airport Timișoara Traian Vuia International Airport (LRTR)
Time Latitude Longitude Altitude Speed Heading
2026-05-07 18:00 44.56883 26.08822 319 ft 0 kts 173°
2026-05-07 18:20 44.56885 26.08821 319 ft 2 kts 173°
2026-05-07 18:21 44.56903 26.08819 319 ft 2 kts 173°
2026-05-07 18:21 44.56919 26.08817 319 ft 3 kts 187°
2026-05-07 18:21 44.56935 26.08825 319 ft 3 kts 234°
2026-05-07 18:21 44.56942 26.08848 318 ft 3 kts 262°
2026-05-07 18:22 44.56943 26.08862 319 ft 1 kts 263°
2026-05-07 18:22 44.56943 26.08865 319 ft 0 kts 263°
2026-05-07 18:25 44.56943 26.08864 320 ft 0 kts 263°
2026-05-07 18:25 44.56941 26.08838 320 ft 6 kts 264°
2026-05-07 18:26 44.56934 26.08751 318 ft 12 kts 264°
2026-05-07 18:26 44.56925 26.08630 319 ft 10 kts 262°
2026-05-07 18:26 44.56884 26.08559 319 ft 10 kts 197°
2026-05-07 18:26 44.56817 26.08563 319 ft 10 kts 171°
2026-05-07 18:27 44.56753 26.08574 319 ft 9 kts 175°
2026-05-07 18:27 44.56689 26.08582 320 ft 9 kts 173°
2026-05-07 18:27 44.56630 26.08605 320 ft 9 kts 151°
2026-05-07 18:27 44.56578 26.08649 321 ft 9 kts 153°
2026-05-07 18:28 44.56543 26.08688 320 ft 2 kts 90°
2026-05-07 18:28 44.56545 26.08714 320 ft 4 kts 82°
2026-05-07 18:28 44.56563 26.08956 319 ft 57 kts 84°
2026-05-07 18:28 44.56631 26.09835 320 ft 122 kts 84°
2026-05-07 18:29 44.56739 26.11272 337 ft 172 kts 83°
2026-05-07 18:29 44.56872 26.13021 929 ft 178 kts 84°
2026-05-07 18:29 44.57008 26.14744 1723 ft 180 kts 86°
2026-05-07 18:29 44.57154 26.16511 2408 ft 183 kts 84°
2026-05-07 18:30 44.57311 26.18354 2849 ft 204 kts 85°
2026-05-07 18:30 44.57570 26.20416 3048 ft 228 kts 66°
2026-05-07 18:30 44.58687 26.22075 3277 ft 246 kts 25°
2026-05-07 18:30 44.60412 26.22461 3503 ft 263 kts 348°
2026-05-07 18:31 44.62068 26.21382 4047 ft 268 kts 317°
2026-05-07 18:31 44.63252 26.19405 4933 ft 263 kts 301°
2026-05-07 18:31 44.64199 26.17200 5741 ft 264 kts 298°
2026-05-07 18:31 44.65099 26.14949 6547 ft 265 kts 297°
2026-05-07 18:32 44.66007 26.12673 7260 ft 269 kts 297°
2026-05-07 18:32 44.66936 26.10374 7957 ft 273 kts 297°
2026-05-07 18:32 44.67889 26.08047 8674 ft 277 kts 297°
2026-05-07 18:32 44.68860 26.05700 9402 ft 280 kts 297°
2026-05-07 18:33 44.69850 26.03325 10087 ft 284 kts 297°
2026-05-07 18:33 44.70874 26.00879 10426 ft 301 kts 298°
2026-05-07 18:33 44.71975 25.98252 10580 ft 323 kts 298°
2026-05-07 18:33 44.73155 25.95447 10759 ft 344 kts 298°
2026-05-07 18:34 44.74403 25.92485 11057 ft 358 kts 298°
2026-05-07 18:34 44.75685 25.89450 11621 ft 363 kts 298°
2026-05-07 18:34 44.76981 25.86382 12259 ft 367 kts 298°
2026-05-07 18:34 44.78292 25.83277 12877 ft 371 kts 298°
2026-05-07 18:35 44.79615 25.80138 13479 ft 375 kts 298°
2026-05-07 18:35 44.80952 25.76962 14046 ft 379 kts 299°
2026-05-07 18:35 44.82299 25.73758 14638 ft 381 kts 298°
2026-05-07 18:35 44.83654 25.70530 15249 ft 383 kts 298°
2026-05-07 18:36 44.85014 25.67288 15830 ft 386 kts 298°
2026-05-07 18:36 44.86383 25.64019 16387 ft 389 kts 299°
2026-05-07 18:36 44.87761 25.60725 16943 ft 392 kts 299°
2026-05-07 18:36 44.89138 25.57397 17493 ft 394 kts 298°
2026-05-07 18:37 44.90484 25.54013 18038 ft 397 kts 298°
2026-05-07 18:37 44.91836 25.50599 18531 ft 400 kts 296°
2026-05-07 18:37 44.92883 25.46970 18990 ft 401 kts 287°
2026-05-07 18:37 44.93733 25.43214 19441 ft 404 kts 286°
2026-05-07 18:38 44.94557 25.39404 19882 ft 407 kts 285°
2026-05-07 18:38 44.95380 25.35572 20320 ft 410 kts 285°
2026-05-07 18:38 44.96216 25.31713 20752 ft 413 kts 286°
2026-05-07 18:38 44.97065 25.27833 21180 ft 415 kts 286°
2026-05-07 18:39 44.97927 25.23923 21598 ft 418 kts 286°
2026-05-07 18:39 44.98801 25.19986 22001 ft 421 kts 286°
2026-05-07 18:39 44.99681 25.16027 22405 ft 424 kts 286°
2026-05-07 18:39 45.00568 25.12037 22800 ft 427 kts 286°
2026-05-07 18:40 45.01462 25.08016 23185 ft 430 kts 286°
2026-05-07 18:40 45.02347 25.04027 23557 ft 433 kts 286°
2026-05-07 18:40 45.02955 25.01281 23778 ft 435 kts 286°